Location: Unspecified
(35.6961°N, 0.0000°E)
Time: 19:23:18
(UTC+00:00)

S-56A Canister/Altair - Pass Details

Date: 05 June 2019
Orbit: 633 x 2499 km, 38.9° (Epoch: 17 June)

Event Time Altitude Azimuth Distance (km) Brightness Sun altitude
Rises 05:33:07 0° 266° (W) 4,135 10.7 8.1°
Reaches altitude 10° 05:38:24 10° 236° (WSW) 3,615 10.4 9.1°
Maximum altitude 05:41:16 12° 218° (SW) 3,711 10.5 9.6°
Drops below altitude 10° 05:44:28 10° 200° (SSW) 4,092 10.9 10.2°
Sets 05:51:51 0° 174° (S) 5,577 11.8 11.6°
